CAPE
0 0 0 0 0 0 0 0 0 1 1 2 2 1 7 3 449 404 925 1033 1157 806 551 627 569 546 883 1071 1484 1933 1799 1560 934 651 844 840 352 278 53 269 526 660 772 673 505 629 604 415 468 496 525 546 551 1034 857 785 609 762 637 1080 1240 1394 1587 1707 1810 1638 1260 1537 1716 1508 1478 1752 1468 1901 1457 1504 1900 2327 1810 2436 3387 4122 4013 4235 4314 4456
0 0 0 0 0 0 0 9 2 1 1 3 3 1 8 44 452 697 756 1143 1572 744 461 825 882 541 559 886 1283 1612 1426 1701 899 871 981 649 311 729 34 49 443 782 458 593 1079 497 558 494 390 444 587 755 590 732 788 774 722 1057 761 799 745 1368 1683 1650 1549 1728 1417 2022 1528 1368 1306 1754 1309 2182 2898 2450 1924 2123 2085 3456 3802 3829 4110 4566 4719 4475
0 0 0 0 0 0 0 0 0 0 3 2 0 0 4 308 136 355 702 1392 1406 1163 135 529 654 535 515 840 1138 1299 1636 1933 1479 1055 1076 716 948 452 660 36 689 458 775 476 472 562 262 444 339 381 463 454 697 721 705 823 787 967 1108 1625 1548 1350 1450 1416 1516 1806 2428 2090 1876 1336 1198 1862 3191 1556 1719 1347 1941 2204 2058 2458 3687 4056 4360 4663 4355 4021
0 0 0 0 0 0 0 0 0 0 0 0 0 0 0 150 81 558 556 486 1333 439 207 357 427 486 404 640 543 1198 1285 1418 1839 1704 1403 1281 835 595 492 49 595 435 670 573 750 748 368 578 390 395 468 501 678 685 680 763 958 1075 1724 1870 2063 1661 1400 1644 1895 2108 1871 2119 2174 2738 2450 1819 1638 1705 1812 2219 2416 2232 1757 2743 3682 3897 4323 3700 3434 2648
0 0 0 0 0 0 0 0 0 0 0 0 0 0 0 6 0 33 283 199 204 473 618 412 336 301 344 424 801 931 959 1857 1645 1542 1735 1495 795 601 468 668 122 728 593 733 596 821 600 444 386 447 527 469 652 567 595 773 734 947 1138 1683 1981 1775 1751 1520 2103 2220 2442 2780 2356 2893 2607 2666 2572 2430 2364 2123 2200 2633 2614 2400 2745 2610 3513 3670 2748 3235
0 0 0 0 0 0 0 0 0 0 0 0 0 0 0 0 0 112 99 72 7 755 543 412 43 73 651 876 1017 881 1088 1322 1759 1611 1467 1515 1030 747 473 397 118 717 527 458 641 882 382 308 363 548 485 515 523 447 625 632 610 901 1001 1428 2158 1833 1755 1442 1847 2503 2983 2952 3460 3071 2860 3138 2414 3376 2626 2252 2163 2113 2582 2276 2529 2218 2843 2781 2838 3685
0 0 0 0 0 0 0 0 0 0 0 0 0 0 2 2 0 7 56 0 1 8 667 409 27 4 688 337 432 1074 1258 1197 1540 1654 1458 1367 1252 765 537 368 37 101 610 736 483 390 626 412 290 479 462 529 447 415 497 508 695 855 1078 1562 1505 1877 1956 1609 2046 2664 3239 2798 3140 2705 1931 1891 2172 2390 1988 2261 1739 2128 2096 2478 2282 3090 2646 3143 2939 3057
0 0 0 0 0 0 0 0 0 0 0 0 0 0 0 0 8 11 4 4 1 0 1276 495 293 255 102 472 426 1239 1269 1174 1219 1428 1215 1279 1130 1024 567 242 123 56 322 434 654 790 677 310 274 412 459 428 429 398 393 453 486 1216 1873 1690 1994 2066 1912 1689 2088 2832 3250 3010 2805 2763 2012 1766 1926 1032 1964 1959 2332 2392 3633 3248 2292 2541 2769 3404 4364 4016
0 0 0 0 0 0 0 0 0 0 0 0 0 0 0 0 4 0 3 5 1 0 0 523 515 173 170 760 762 1024 1042 828 858 1034 1258 1168 1263 1155 404 86 155 29 314 454 543 684 930 397 548 435 390 373 246 347 200 409 390 982 1419 1924 2071 2063 2149 2200 2337 2820 2695 2937 2864 2807 1764 2511 1753 1486 1736 1825 2364 3037 2913 2851 3772 2627 2299 3322 3586 3809
0 0 0 0 0 0 0 0 0 0 0 0 0 0 0 0 0 0 0 0 2 1 0 0 552 106 18 239 1251 1222 964 771 905 994 1026 886 942 918 476 118 113 29 134 382 384 530 637 499 604 363 226 232 156 335 157 321 324 650 1327 1778 2120 2029 2110 2280 2549 2871 2914 2653 2980 2804 2524 1891 1592 1990 2436 2210 3218 3462 4130 3279 3372 4240 4371 1908 3388 3662
0 0 0 0 0 0 0 0 0 0 0 0 0 0 0 0 0 0 0 0 0 0 0 0 2 63 21 354 991 1182 1116 885 950 988 835 933 829 808 483 116 156 54 38 196 357 525 464 632 478 448 194 95 145 211 215 310 313 569 996 1417 1953 2129 2082 2315 2418 2658 2620 2597 2498 2575 2737 2260 2303 2001 2111 2353 3082 3625 3156 3674 3304 3407 4117 4151 2672 2531
0 0 0 0 0 0 0 0 0 0 0 0 0 0 0 0 0 0 1 4 0 1 642 404 634 330 173 501 540 928 767 779 614 882 972 817 966 687 799 224 217 164 10 104 138 290 657 784 1036 475 452 142 168 84 220 420 307 597 1147 1470 2130 2236 2554 2317 1974 2328 2076 2201 2573 2406 2503 2491 2655 3005 2551 3487 2962 2984 3136 2727 3442 3772 3594 3604 3230 3617
0 0 0 0 0 0 0 0 0 0 0 0 0 0 0 0 0 8 1 3 6 0 584 542 413 307 114 186 197 475 678 406 410 1096 1079 1057 903 801 760 537 113 143 31 36 201 277 381 750 853 937 754 557 573 414 253 253 383 634 1010 1438 2019 2520 2574 2946 2209 2381 2260 2415 2448 2504 2406 2696 2848 3542 3430 3108 3664 3079 3685 3041 3173 4190 4127 3975 3482 3360
3 0 0 0 0 0 0 0 0 0 0 0 0 0 0 0 0 6 11 2 0 5 435 717 365 132 36 54 76 354 456 280 265 1013 799 678 1108 903 690 719 264 294 143 53 74 126 410 598 876 728 903 565 305 202 118 203 396 831 1148 1712 1864 2564 2567 3039 2710 2247 2510 2386 2560 2552 2509 2539 3059 3217 3115 3282 2771 2530 3096 3385 2915 2936 2751 3612 2859 2284
2 0 0 0 0 0 0 0 0 0 0 0 8 0 3 10 8 32 17 4 16 220 162 600 127 36 0 596 16 31 113 158 358 771 771 756 1253 1280 788 569 410 190 140 47 48 53 214 301 727 668 582 636 293 177 107 184 714 1073 1850 2169 2455 2712 2564 2982 2951 2652 2635 2260 2363 2553 2295 2411 2394 2498 2852 3008 2874 2788 2550 2089 2184 3508 2749 2578 2320 2322
0 0 7 0 0 0 0 0 0 0 0 0 0 0 0 1 17 0 4 6 2 1 272 82 18 17 52 124 185 203 227 460 588 830 902 728 659 1038 839 919 572 277 186 47 53 95 183 455 653 622 819 447 459 835 339 284 980 914 1643 2305 2374 2598 2419 2608 2940 2791 2519 2534 2021 2574 2515 2303 2440 2726 2370 3132 3442 3376 2553 2343 2217 3363 3590 2970 3484 3138
0 0 0 0 0 0 0 0 0 0 4 3 0 0 1 0 1 8 11 1 3 10 3 4 2 17 334 199 216 173 225 105 314 500 368 464 661 995 1008 860 594 714 627 208 123 133 344 512 441 558 607 643 751 420 426 746 997 1345 2068 2030 2329 2498 2318 2290 2745 2266 2305 2495 2326 2393 1970 1849 2082 1833 1711 1674 1985 1718 2214 2768 2468 2106 2267 3265 3243 2590
0 0 0 2 0 0 0 0 0 0 0 0 1 2 0 0 0 6 0 1 0 0 29 2 34 61 107 104 298 331 418 450 493 360 314 310 459 712 1001 1089 1026 869 506 754 619 288 327 535 590 646 734 964 709 674 719 1382 1089 1973 1995 2035 1931 2275 2186 1960 2104 1782 2101 2218 2048 2270 2023 2016 1859 1471 1388 1241 1346 1534 2101 2312 2712 2332 2511 1727 2141 2228
0 0 0 0 0 4 0 0 0 0 0 0 0 3 0 122 82 283 6 2 9 0 59 30 10 137 64 159 137 218 292 337 504 474 360 251 346 573 986 1698 1688 1339 1035 688 682 324 252 419 546 751 811 812 1079 1175 899 1128 1040 1550 1490 1455 1550 1725 1577 1730 1657 1703 1636 1744 1449 1476 1719 1384 1661 1311 1206 1233 1708 1799 1340 1377 1500 1936 1963 1525 2097 2699
0 0 0 0 4 1 0 0 2 9 1 0 0 1 4 0 5 33 13 111 105 24 2 23 0 0 131 388 157 427 399 371 291 317 540 693 561 480 722 1043 1355 1542 1704 1972 1821 485 208 97 159 423 626 1020 1029 1224 696 782 365 505 764 1382 1351 2016 1990 1336 1105 1373 1455 1392 1403 1352 1666 1983 1983 1894 1570 1477 1774 1611 1305 1202 1237 1289 1145 1347 1519 1693
0 0 0 0 0 0 5 0 0 0 3 0 0 1 20 0 28 48 42 95 48 86 31 25 117 225 204 365 474 522 588 696 528 620 449 500 384 342 208 483 1280 1712 1821 2100 1867 996 144 106 67 304 833 967 904 996 710 893 538 556 733 963 1352 1438 1360 1241 959 1002 1427 1557 1764 1847 1702 1441 1627 1171 1150 1188 1119 1203 1666 1411 2067 1504 1312 1375 1773 1598
0 0 0 0 0 5 0 0 1 3 0 0 0 0 0 189 218 4 101 25 32 10 5 6 4 528 463 596 875 357 388 425 480 795 1210 370 535 525 595 416 1590 1556 1682 1753 1467 1351 168 124 117 190 649 196 661 732 1031 727 1002 704 714 730 998 912 920 734 1075 1524 1398 1543 1681 1353 1253 1715 1408 1458 1398 1267 1229 1383 1319 1649 1948 1961 1885 1044 1633 1850
0 0 0 0 0 0 0 0 0 0 0 10 20 2 4 0 31 149 0 31 22 46 16 24 1 471 331 877 1148 683 983 1040 912 669 585 868 650 868 616 426 1385 1545 853 1570 1774 1615 494 246 325 465 701 474 588 790 684 555 584 1057 1312 1304 1374 1560 1462 870 974 1956 1895 1975 1991 1800 1144 1369 1698 1686 1585 1120 1047 1448 1070 1097 1313 1352 1465 1180 1175 1697
0 0 0 0 0 0 0 0 2 0 0 0 0 64 15 18 48 22 75 41 42 22 17 30 0 370 685 938 1131 608 1311 1160 655 507 748 826 1472 1127 745 678 1019 1637 1375 1408 1454 1596 1475 500 643 736 730 848 873 866 844 869 1026 1351 1563 1871 1717 1942 1833 1704 1813 2508 2374 1978 1695 1264 1425 1431 1568 917 884 796 714 734 859 934 986 1237 1153 1040 975 1249
0 2 0 0 0 0 0 1 2 1 0 11 7 66 81 46 9 3 45 254 128 131 57 8 134 495 278 884 965 1133 875 755 697 553 686 1008 1685 1489 1348 939 1128 1793 1616 1575 1357 1406 1387 812 731 1150 1076 1073 1248 1134 1003 1053 1415 2021 2079 2137 1814 1809 2062 1646 1726 2268 2415 1893 1137 1093 987 942 1058 1109 1132 1044 505 442 571 757 902 1048 1096 1005 975 1121
0 0 0 0 3 3 12 2 4 0 9 24 0 3 71 24 45 17 73 200 81 178 89 38 62 162 424 675 545 1095 818 816 649 661 847 1045 1108 1282 1084 743 1001 1716 1939 1620 1314 1791 1046 1319 1040 1571 1484 1470 1720 1370 1233 1163 1625 1863 2650 2222 2009 2094 2364 2048 1760 2340 2488 1992 1757 1776 1117 937 995 943 1155 1349 941 572 425 592 734 882 901 946 894 1196
0 0 0 0 0 0 0 0 0 0 0 0 0 24 82 35 2 93 465 394 310 112 5 162 170 164 306 349 618 924 1012 811 1038 640 1022 960 1198 1269 1156 1522 1461 1391 1764 1801 1766 1810 1513 626 795 1600 1767 1532 1651 1663 1696 1704 1932 2149 2839 2636 2591 2487 2653 2235 2082 2704 2754 2514 2052 2033 1323 1106 1088 1031 967 1763 1814 1575 1018 737 718 851 750 1022 1120 865
0 0 0 0 0 0 0 0 0 0 1 9 3 0 0 0 112 295 240 204 231 173 140 584 347 186 177 32 169 498 779 1148 894 1210 1388 1102 945 1080 1247 878 1080 1305 1230 2210 1180 1250 1748 1833 992 1428 2145 1811 2078 2091 2036 1859 2241 2630 2660 2466 2268 2743 2601 1679 1901 3284 3125 2719 2474 2709 2566 2132 1706 1819 2066 2439 2623 2761 2293 1388 786 686 590 1131 1142 761
0 0 0 0 0 0 0 2 1 0 0 0 0 0 0 0 1 70 83 64 156 82 18 94 259 436 364 230 621 762 1095 520 410 1258 1057 1302 1220 1163 1300 1408 1160 1382 1663 1829 1957 2118 1960 1844 1683 894 1211 1812 1854 2186 1894 1476 2105 3127 3201 2960 2562 2462 2934 2622 2671 2959 3077 3288 3283 3385 3350 3236 2677 2874 3112 4041 3745 3206 3074 2914 1587 1592 1700 1517 1089 712
0 0 0 0 0 0 0 0 0 0 0 0 0 0 0 0 0 1 20 27 14 90 59 53 327 206 159 424 867 931 879 601 435 813 914 1022 1254 1467 1192 1111 1067 1179 1352 1481 1616 1736 1644 1199 1298 1293 972 1581 1143 2364 2138 2199 1658 3014 3775 4137 5213 4998 3985 3275 3422 3305 3215 3811 4082 4157 3912 4106 3875 3192 3219 3445 5569 5659 5193 4003 2710 1672 1740 1774 826 1303
0 0 0 0 0 0 0 0 0 0 0 0 0 0 0 0 0 0 0 0 0 2 29 78 176 377 920 1096 820 943 936 646 557 431 720 1025 1485 1249 1277 1218 1273 1355 1463 1496 1948 1661 1448 1148 1246 979 577 791 1252 1204 2133 3010 3308 3780 4393 4371 3610 3504 2949 3891 4402 4017 3790 4006 4496 4560 4092 3665 3588 3242 4524 4767 4763 4560 4953 4838 4055 3496 3517 2895 1621 2386
0 0 0 0 0 0 0 0 0 0 0 1 0 1 0 0 0 0 0 4 2 4 2 141 100 153 1068 1603 907 1148 1001 632 441 340 637 1102 1144 1295 1244 1320 1392 1381 1577 1683 1548 1391 1016 502 444 357 567 678 718 899 1018 1107 2940 3714 4090 4276 3816 2636 1924 2368 2818 3907 4254 4812 4877 4588 4562 4432 4583 4351 4830 4307 3993 4196 4114 3960 3951 4324 4130 3507 2282 3637
0 1 6 8 0 0 0 1 0 8 1 0 3 4 11 1 0 0 0 0 0 22 60 102 105 869 1370 1160 1213 852 607 531 712 604 650 901 1191 1172 1410 1581 1129 1314 1432 1706 1286 1084 898 517 430 398 425 1048 794 1127 1156 968 1165 1714 2530 2033 2867 3614 2074 1628 2556 2411 3256 4444 4294 4300 4618 4062 3912 4107 4613 4222 4157 4215 4138 3885 3881 3655 3817 3526 3448 2954
1 1 0 0 0 0 0 0 2 0 5 46 14 4 0 0 0 0 0 12 638 122 90 68 165 447 1154 1268 1203 1023 784 660 616 658 628 840 845 769 805 985 1150 1088 983 1036 1170 793 453 421 581 676 708 545 586 1376 1214 606 688 1189 1710 1822 2150 2683 2632 2270 2055 2302 2724 2952 3170 3526 3259 2942 2939 2934 3453 3869 4446 4390 4348 4324 4014 3855 3578 3432 3641 3226
0 0 0 4 3 1 0 0 4 1 30 33 3 0 0 0 0 0 0 0 0 10 41 104 280 198 1499 1281 1269 1086 719 551 636 476 574 703 826 876 845 984 849 742 695 773 728 802 625 564 531 427 623 832 1009 1536 1317 877 987 1179 1591 1589 1776 1837 1983 2081 2443 2890 2263 2719 2926 2895 2878 2782 2830 3464 3149 3316 3511 3382 3469 4277 4298 4162 4059 3897 3637 3427
5 0 0 0 1 3 2 0 0 0 79 0 4 0 0 0 0 0 0 0 0 32 199 84 116 1135 1387 1448 1284 966 699 576 601 782 725 780 836 880 835 799 673 598 566 447 519 532 533 172 478 652 937 1401 1417 1641 1876 1755 1588 1893 1501 1484 1858 1940 2420 2612 2864 2513 1933 1809 2050 2532 2616 2659 2394 2651 2708 2594 2641 2532 2492 3080 4042 4035 4249 3999 3324 2443
0 0 0 0 0 3 2 0 7 37 11 6 23 4 0 0 0 0 0 0 103 261 802 728 706 1230 1569 1460 1041 835 700 632 702 826 771 629 554 536 674 692 599 583 515 564 422 337 326 377 328 620 1104 1351 1389 1551 1869 2209 1972 1547 1693 1596 1989 2055 2214 2132 1959 1934 2016 1973 2124 2293 2354 2364 2541 2402 2114 2010 2102 1927 2027 2307 2500 2958 2844 2677 2379 1792
87 16 18 0 0 0 2 6 10 14 6 12 2 5 0 0 0 0 0 0 664 497 660 772 806 1171 1147 906 694 749 804 908 840 878 866 642 470 533 678 638 643 550 562 546 441 319 356 374 405 602 1016 1150 1228 1279 1421 1549 1613 1676 1613 1668 1681 1672 1616 1785 1765 1839 1926 1783 1456 1562 1592 1449 1583 1744 1882 2098 1921 1790 1516 1906 2181 2484 2279 2039 1783 1547
2 17 47 0 0 0 10 12 10 14 13 60 10 2 0 0 0 2 0 0 551 601 739 622 719 1128 1052 962 486 496 589 553 705 1014 728 703 668 587 618 573 646 571 538 548 440 370 304 193 254 504 788 928 940 999 1117 1261 1233 1390 1445 1378 1335 1332 1304 1353 1389 1506 1550 1502 1662 1752 1568 1682 1355 1576 1709 1520 1543 1581 1526 1628 1571 1740 1689 1511 1438 1412
9 0 4 0 0 0 0 2 0 2 2 20 0 0 0 0 0 0 0 110 32 411 576 692 984 1163 1124 979 586 602 669 479 334 769 745 579 571 556 726 747 718 660 580 485 389 386 290 256 345 483 568 546 544 664 784 851 978 1170 1164 1102 1052 1029 1052 1059 1112 1174 1172 1084 1090 1200 1186 1152 1377 1654 1512 1201 1045 904 1005 1078 1036 1152 1225 1140 983 998
0 0 0 0 3 2 0 0 0 0 64 16 17 0 0 7 0 0 38 271 478 386 361 364 726 1184 1136 1094 1043 950 769 866 1012 755 566 651 566 592 737 728 746 672 647 537 432 415 376 427 425 429 392 506 482 524 615 638 659 749 815 875 865 883 860 799 803 856 889 880 832 790 801 837 757 886 850 766 655 596 572 582 704 657 648 531 485 364
0 2 2 7 0 0 14 6 1 8 244 54 6 33 27 3 0 3 94 491 830 524 474 612 708 1175 1270 1350 1283 1156 992 870 800 600 656 636 487 464 598 614 680 666 603 578 450 487 476 405 474 432 449 423 475 424 519 508 538 567 589 640 658 670 640 524 451 465 514 568 575 572 583 661 691 647 522 361 332 315 252 209 242 312 336 179 215 204
4 0 12 0 5 0 1 2 1 1 56 21 30 33 55 23 615 111 186 602 334 85 330 948 1141 1091 1463 1016 872 974 881 682 687 678 548 482 472 472 496 567 631 654 608 514 398 399 391 396 470 540 516 472 526 504 459 426 454 468 466 408 339 241 215 180 185 178 189 188 247 266 328 291 223 248 299 113 0 53 89 8 50 79 66 6 0 0
0 0 0 2 1 10 10 6 54 114 28 123 8 14 474 492 358 206 83 37 179 200 664 778 1104 1241 1154 1228 1211 1118 745 660 639 692 613 527 442 451 461 502 473 427 494 558 274 23 54 191 494 508 529 531 513 453 328 388 387 330 282 160 144 162 207 230 200 210 210 213 199 145 154 156 175 147 8 2 1 26 92 90 63 40 4 0 0 0
0 0 142 74 14 27 20 10 53 73 153 101 113 44 28 169 282 73 89 50 24 259 903 1065 825 849 1010 1180 1137 1115 750 681 656 510 450 560 521 452 460 458 478 337 460 590 483 511 433 405 446 424 467 456 415 393 303 296 276 240 152 130 176 194 228 225 218 210 203 190 151 137 169 170 54 72 42 18 0 10 13 14 4 1 0 0 0 0
188 36 61 47 2 2 4 1 1 2 10 1 2 102 121 258 104 18 32 90 68 288 1069 1198 722 849 986 1141 897 780 651 586 530 378 437 486 620 394 356 418 467 426 540 533 523 428 203 425 503 382 316 359 352 316 270 162 135 235 102 168 190 232 280 309 265 236 221 225 196 176 147 23 0 0 6 0 14 105 170 159 131 102 76 77 77 63
4 8 0 0 3 0 0 0 0 0 1 80 86 24 124 124 225 151 254 185 140 305 1368 1231 895 923 1037 968 888 617 544 628 613 503 451 481 396 388 352 332 361 381 383 482 424 404 334 243 365 195 1 149 255 267 254 214 188 166 138 154 143 152 208 257 298 261 186 136 79 69 10 0 0 7 7 1 54 111 115 120 117 78 142 235 96 28
0 0 0 2 0 0 0 6 11 96 202 135 62 10 27 335 979 1172 1034 583 485 1008 1511 1502 1471 1373 1166 1124 972 881 700 587 530 464 344 286 285 242 236 240 316 333 298 354 161 311 345 180 148 27 88 211 211 225 204 176 164 133 142 119 138 140 194 199 215 216 200 158 118 56 0 0 0 0 0 0 0 0 0 0 0 0 0 0 0 0
180 0 0 0 0 0 0 0 30 105 118 415 1054 576 281 319 384 282 552 567 568 1338 1677 1606 1458 1283 1229 1045 896 739 599 435 387 392 300 254 241 118 7 0 0 283 227 26 45 111 282 64 8 0 0 0 71 146 127 108 91 79 79 72 57 37 4 46 74 8 4 3 0 0 0 0 0 0 0 0 0 0 0 0 0 0 0 0 0 0
2 0 1 0 0 0 0 527 208 51 349 249 535 366 615 419 376 247 359 690 792 1451 1633 1525 1404 1214 1046 714 548 514 492 282 271 244 211 75 115 66 59 20 0 147 293 161 111 81 15 21 26 135 4 1 29 38 0 0 0 0 0 0 0 0 0 0 0 0 0 0 0 0 0 0 0 0 0 0 0 0 0 0 0 0 0 0 0 0
19 93 6 55 20 225 61 228 665 125 44 410 476 488 324 257 164 206 566 1158 1348 1285 1414 1478 1360 1124 930 789 439 334 146 132 166 154 165 107 66 91 144 51 7 4 5 123 107 105 53 34 28 91 146 100 4 3 10 0 0 0 0 0 0 0 0 0 0 0 0 0 0 0 0 0 0 0 0 0 0 0 0 0 0 0 0 0 0 0
Wind_Speed
nan nan nan nan nan nan nan nan nan nan nan nan nan nan nan nan 19 17 20 17 13 12 7 7 9 9 9 4 11 14 14 11 12 12 11 11 12 8 nan 13 7 8 7 4 6 8 9 10 11 9 7 6 6 6 6 5 5 4 5 5 5 6 7 6 5 5 6 6 6 7 6 7 6 8 6 6 6 7 6 7 5 5 4 6 4 7
nan nan nan nan nan nan nan nan nan nan nan nan nan nan nan nan 20 20 20 19 16 12 15 12 8 7 7 7 9 16 15 9 11 11 8 9 5 10 nan nan 9 10 10 5 8 6 8 10 12 9 7 7 8 6 5 5 5 4 6 3 4 5 5 4 4 5 6 6 7 7 6 5 5 8 8 7 7 8 7 6 5 6 5 5 5 6
nan nan nan nan nan nan nan nan nan nan nan nan nan nan nan 18 28 25 27 23 18 11 18 18 13 13 4 7 7 14 14 10 8 11 11 9 8 11 12 nan 14 10 10 8 4 5 7 12 12 9 9 8 8 7 6 6 7 5 4 4 5 5 4 4 4 5 7 6 5 6 9 8 8 7 6 7 7 4 5 7 7 6 5 5 5 3
nan nan nan nan nan nan nan nan nan nan nan nan nan nan nan 19 nan 23 23 23 18 15 18 19 12 15 11 8 6 8 12 10 10 12 15 15 13 11 11 nan 15 11 10 8 4 5 2 12 11 9 9 10 8 6 5 6 7 5 4 5 4 3 3 4 4 4 5 5 6 9 10 7 3 7 4 7 6 6 5 7 5 5 6 4 4 4
nan nan nan nan nan nan nan nan nan nan nan nan nan nan nan nan nan nan 24 19 16 21 21 16 13 14 20 10 15 10 9 13 12 11 15 16 14 13 12 13 15 14 11 9 6 8 2 12 11 10 9 9 9 7 5 5 6 4 6 3 2 2 4 3 4 4 4 4 6 8 6 6 6 4 5 6 9 7 7 5 5 3 4 5 6 5
nan nan nan nan nan nan nan nan nan nan nan nan nan nan nan nan nan 28 nan nan nan 18 14 14 nan nan 21 18 20 10 10 10 10 11 13 16 15 14 10 11 11 16 11 9 8 4 9 10 13 10 9 9 9 8 6 5 5 7 6 5 3 2 4 2 2 2 3 3 4 3 3 4 3 5 3 3 3 3 4 4 4 4 2 5 4 3
nan nan nan nan nan nan nan nan nan nan nan nan nan nan nan nan nan nan nan nan nan nan 16 11 nan nan 16 14 10 18 14 11 12 10 11 14 16 14 13 10 nan 15 15 11 8 8 4 11 12 10 9 9 9 8 7 6 5 8 6 5 4 1 3 2 2 2 3 3 3 2 1 2 3 2 3 2 2 3 2 3 3 2 0 6 1 4
nan nan nan nan nan nan nan nan nan nan nan nan nan nan nan nan nan nan nan nan nan nan 20 14 15 12 9 11 12 16 13 9 9 10 10 12 15 14 15 11 10 nan 15 12 12 7 5 11 11 10 9 9 8 8 7 7 5 8 6 5 4 3 3 3 3 3 4 4 4 4 4 3 2 2 3 3 3 4 4 3 2 1 2 4 3 2
nan nan nan nan nan nan nan nan nan nan nan nan nan nan nan nan nan nan nan nan nan nan nan 20 21 14 12 17 20 20 11 7 8 10 11 11 13 16 17 nan 11 nan 16 13 11 8 10 7 12 10 8 9 10 8 7 8 7 8 6 5 4 3 3 4 2 3 3 4 4 5 5 3 5 3 3 3 3 3 3 1 3 1 3 1 2 3
nan nan nan nan nan nan nan nan nan nan nan nan nan nan nan nan nan nan nan nan nan nan nan nan 23 16 nan 15 16 17 14 12 11 12 12 13 13 16 18 18 14 nan 16 13 10 9 10 8 10 11 9 8 10 8 7 9 9 7 6 4 4 3 2 4 3 3 3 2 3 4 6 4 5 5 4 5 4 2 4 2 5 4 7 3 3 5
nan nan nan nan nan nan nan nan nan nan nan nan nan nan nan nan nan nan nan nan nan nan nan nan nan nan nan 17 16 18 12 11 13 12 13 14 15 16 17 19 17 nan nan 14 12 15 11 6 8 11 9 nan 11 10 8 8 9 8 6 5 4 4 2 4 3 2 2 2 2 3 5 3 4 4 5 5 4 4 5 5 4 4 6 8 6 5
nan nan nan nan nan nan nan nan nan nan nan nan nan nan nan nan nan nan nan nan nan nan 20 27 32 28 15 20 14 12 14 12 13 15 15 15 14 17 21 20 18 16 nan 15 13 14 13 12 10 9 8 8 11 nan 9 7 8 8 7 6 4 4 2 3 2 2 2 2 2 3 4 3 4 4 4 5 4 5 5 6 5 6 6 5 8 9
nan nan nan nan nan nan nan nan nan nan nan nan nan nan nan nan nan nan nan nan nan nan 20 22 23 21 14 15 13 10 11 12 12 15 17 16 14 16 19 20 20 18 nan nan 17 14 13 10 13 8 9 11 11 11 11 8 8 8 8 7 5 4 2 3 2 1 2 2 2 2 2 3 3 3 2 2 2 3 4 5 3 4 5 7 7 3
nan nan nan nan nan nan nan nan nan nan nan nan nan nan nan nan nan nan nan nan nan nan 32 20 18 15 nan nan nan 16 10 9 10 15 16 17 13 12 15 18 21 20 18 nan nan 15 14 12 10 10 10 11 12 11 11 9 8 9 8 8 6 6 2 3 1 2 2 1 2 2 2 2 3 2 2 2 1 0 1 3 3 3 3 4 5 6
nan nan nan nan nan nan nan nan nan nan nan nan nan nan nan nan nan nan nan nan nan 15 22 25 17 nan nan 23 nan nan 14 12 14 17 16 15 13 11 13 17 21 22 19 nan nan nan 15 14 13 14 13 14 12 11 10 10 13 11 9 8 7 6 5 3 2 2 1 1 2 2 2 2 3 1 2 2 2 2 1 2 2 0 2 1 3 4
nan nan nan nan nan nan nan nan nan nan nan nan nan nan nan nan nan nan nan nan nan nan 24 nan nan nan nan 18 19 25 28 25 21 20 17 14 12 12 14 17 21 24 22 nan nan nan 18 16 15 15 14 13 11 11 12 11 15 10 10 9 8 7 6 5 3 3 1 1 2 2 2 2 2 3 2 2 3 2 1 0 1 4 3 1 3 4
nan nan nan nan nan nan nan nan nan nan nan nan nan nan nan nan nan nan nan nan nan nan nan nan nan nan 21 17 22 25 32 27 18 17 15 16 13 12 12 15 17 22 24 22 23 21 21 19 15 16 15 14 13 11 12 14 15 11 12 10 8 7 6 6 5 5 2 2 2 2 1 1 1 1 0 0 1 1 1 1 2 2 3 3 2 2
nan nan nan nan nan nan nan nan nan nan nan nan nan nan nan nan nan nan nan nan nan nan nan nan nan nan 18 15 18 19 23 22 17 13 14 13 13 11 10 14 16 20 24 25 26 26 24 23 18 19 19 15 14 12 14 16 16 14 14 10 8 8 6 6 6 6 4 4 2 3 2 1 1 0 0 1 1 1 1 2 3 2 2 3 5 4
nan nan nan nan nan nan nan nan nan nan nan nan nan nan nan 17 nan 18 nan nan nan nan nan nan nan 18 nan 16 15 18 19 19 19 17 14 12 13 11 12 16 18 22 27 27 25 27 26 24 20 18 21 17 16 17 14 16 17 15 14 9 7 7 6 6 6 6 7 5 4 4 3 2 1 1 1 2 3 3 2 2 4 1 2 3 2 6
nan nan nan nan nan nan nan nan nan nan nan nan nan nan nan nan nan nan nan 16 14 nan nan nan nan nan 20 18 19 18 16 15 15 15 16 17 15 14 14 15 17 21 25 28 31 28 26 nan 20 17 21 21 17 18 16 15 15 13 13 11 9 9 7 6 6 8 7 6 5 5 6 4 5 5 4 5 5 4 2 2 3 4 3 4 4 6
nan nan nan nan nan nan nan nan nan nan nan nan nan nan nan nan nan nan nan nan nan nan nan nan 11 17 17 16 17 13 16 17 14 13 13 14 17 17 15 16 19 21 24 29 32 30 25 23 nan 22 23 24 21 19 19 16 15 14 14 12 11 10 7 5 7 9 8 9 8 7 7 5 5 3 4 4 4 3 4 4 5 5 3 4 4 7
nan nan nan nan nan nan nan nan nan nan nan nan nan nan nan 8 14 nan 13 nan nan nan nan nan nan 22 22 17 19 18 21 21 19 16 13 13 16 19 22 20 22 24 23 27 30 32 27 23 25 25 25 23 23 20 21 16 18 16 14 15 13 11 9 7 8 13 12 11 11 8 9 8 7 6 7 6 4 4 4 6 5 5 4 4 5 6
nan nan nan nan nan nan nan nan nan nan nan nan nan nan nan nan nan 15 nan nan nan nan nan nan nan 20 12 13 14 13 17 21 22 21 18 15 13 16 19 23 26 27 24 25 26 34 32 27 26 28 27 25 25 23 22 20 19 18 18 18 17 15 13 11 12 15 14 13 13 10 10 9 9 8 7 5 6 6 4 6 5 6 7 4 5 7
nan nan nan nan nan nan nan nan nan nan nan nan nan nan nan nan nan nan nan nan nan nan nan nan nan 22 17 16 14 15 18 19 26 29 25 23 17 13 13 15 17 21 21 26 26 29 33 31 31 31 29 29 28 27 26 24 22 23 21 21 20 17 15 14 16 17 16 15 13 11 11 11 11 9 8 7 7 6 6 7 7 8 6 5 7 8
nan nan nan nan nan nan nan nan nan nan nan nan nan nan nan nan nan nan nan 23 17 17 nan nan 16 22 17 15 17 17 21 24 24 24 21 27 25 17 10 9 11 17 21 23 22 21 28 30 34 33 31 31 32 30 28 27 26 26 24 24 21 20 19 17 18 19 19 17 15 13 13 12 12 10 10 10 9 8 7 7 9 10 8 7 7 11
nan nan nan nan nan nan nan nan nan nan nan nan nan nan nan nan nan nan nan 22 nan 16 nan nan nan 23 20 14 18 22 22 20 17 19 16 19 25 20 17 13 9 11 16 17 24 31 31 33 35 36 33 33 33 32 31 30 30 28 27 25 24 23 23 20 20 21 20 19 16 15 11 11 11 9 10 11 10 9 9 10 11 13 10 6 9 9
nan nan nan nan nan nan nan nan nan nan nan nan nan nan nan nan nan nan 20 17 16 16 nan 23 19 16 11 16 20 24 19 18 17 17 14 18 25 24 24 23 16 12 14 16 22 27 28 30 37 34 33 32 33 32 33 31 31 30 29 28 27 27 25 23 23 23 22 21 17 16 13 12 11 11 11 13 12 12 10 14 13 12 10 11 11 11
nan nan nan nan nan nan nan nan nan nan nan nan nan nan nan nan 21 23 19 16 20 20 17 23 21 22 22 nan 24 17 16 19 21 19 18 18 21 20 20 22 19 15 14 17 20 21 22 26 30 36 33 34 35 33 32 32 31 30 29 28 28 28 26 24 22 24 23 22 18 17 16 14 14 14 14 16 15 13 12 10 12 12 12 14 13 12
nan nan nan nan nan nan nan nan nan nan nan nan nan nan nan nan nan nan nan nan 22 nan nan nan 21 17 18 20 26 24 22 24 24 23 22 20 20 20 18 17 18 16 15 14 16 18 18 22 38 39 36 34 36 35 34 32 32 32 32 31 31 29 27 27 25 25 23 22 20 18 18 17 18 17 19 18 15 14 14 13 12 14 14 15 14 14
nan nan nan nan nan nan nan nan nan nan nan nan nan nan nan nan nan nan nan nan nan nan nan nan 17 16 17 20 25 20 22 21 18 23 26 23 22 21 20 18 17 17 15 14 14 15 20 29 39 46 50 45 32 35 34 34 33 33 33 34 36 32 30 28 26 25 25 24 22 21 21 21 23 20 17 18 20 22 22 19 17 14 15 14 16 18
nan nan nan nan nan nan nan nan nan nan nan nan nan nan nan nan nan nan nan nan nan nan nan nan 17 18 28 31 28 19 22 25 22 16 19 24 23 23 22 21 19 19 19 17 18 20 26 25 31 42 50 51 50 46 40 37 38 36 36 39 36 34 34 32 28 26 27 25 25 25 24 22 21 20 19 21 21 24 24 24 22 21 20 19 19 19
nan nan nan nan nan nan nan nan nan nan nan nan nan nan nan nan nan nan nan nan nan nan nan 17 18 21 25 26 25 19 18 23 21 17 12 16 25 24 23 21 21 21 21 21 21 22 25 31 33 34 42 50 50 48 47 47 44 43 42 40 39 38 38 34 29 31 28 29 28 27 26 24 23 23 24 23 23 24 26 26 26 25 24 22 20 24
nan nan nan nan nan nan nan nan nan nan nan nan nan nan nan nan nan nan nan nan nan nan nan 19 22 33 28 25 22 19 18 17 19 17 15 18 25 23 27 27 24 25 27 24 24 25 26 30 30 31 38 45 49 50 46 46 47 50 52 45 42 44 39 30 26 29 29 31 32 31 29 29 27 25 25 25 24 25 27 27 27 27 26 24 25 25
nan nan nan nan nan nan nan nan nan nan nan nan nan nan nan nan nan nan nan nan 26 19 nan nan 23 30 32 28 22 20 24 27 23 22 23 22 17 24 26 28 32 34 36 34 30 29 28 30 34 40 43 45 45 46 47 44 46 48 48 43 40 38 34 29 26 30 29 29 29 29 29 29 28 26 27 27 27 26 27 28 27 28 27 27 28 28
nan nan nan nan nan nan nan nan nan nan nan nan nan nan nan nan nan nan nan nan nan nan nan 17 23 24 33 29 25 26 34 35 32 27 24 15 14 12 9 18 27 29 32 35 33 28 27 26 31 37 42 44 42 44 49 49 47 47 42 38 31 28 28 28 32 35 36 29 25 28 32 35 33 30 30 30 30 29 25 26 29 28 28 28 29 31
nan nan nan nan nan nan nan nan nan nan nan nan nan nan nan nan nan nan nan nan nan nan 26 nan 28 34 33 31 31 34 38 39 32 22 20 21 21 21 21 20 22 25 27 31 33 32 25 20 19 25 36 40 47 53 52 49 46 44 40 32 28 31 34 38 41 42 38 29 25 33 40 38 34 32 32 32 30 25 19 22 26 27 31 33 34 34
nan nan nan nan nan nan nan nan nan nan nan nan nan nan nan nan nan nan nan nan 27 28 29 30 30 34 36 39 39 38 37 33 28 22 20 22 18 19 20 19 20 22 25 28 32 33 29 22 18 18 28 43 53 56 55 55 54 51 46 40 37 38 43 45 43 40 36 38 30 37 41 36 28 27 28 26 26 22 21 23 24 29 32 32 35 33
nan nan nan nan nan nan nan nan nan nan nan nan nan nan nan nan nan nan nan nan 29 29 30 27 28 32 35 40 40 39 36 30 22 25 27 20 14 13 15 18 20 22 25 28 30 31 27 23 19 20 23 36 48 53 53 55 57 56 52 50 45 42 43 47 46 45 47 49 44 41 38 37 36 29 24 27 27 26 24 23 26 29 31 33 35 34
nan nan nan nan nan nan nan nan nan nan nan nan nan nan nan nan nan nan nan nan 24 25 29 30 31 34 32 34 35 34 34 29 22 25 27 22 18 15 17 19 21 21 24 28 30 30 27 22 19 22 24 31 42 48 50 52 54 55 54 53 51 47 47 48 47 46 48 48 43 39 32 35 35 30 29 32 29 28 26 26 28 32 36 38 40 39
nan nan nan nan nan nan nan nan nan nan nan nan nan nan nan nan nan nan nan 21 nan 25 24 28 30 33 31 32 31 29 28 26 21 23 28 22 22 19 19 21 22 23 24 25 29 34 32 28 25 25 27 30 37 46 49 49 49 51 52 54 52 50 50 48 46 46 46 47 44 39 33 37 35 35 36 38 37 36 37 34 36 38 41 41 44 44
nan nan nan nan nan nan nan nan nan nan nan nan nan nan nan nan nan nan nan 23 19 22 21 23 26 31 29 26 24 25 26 25 27 28 26 22 22 20 20 20 21 22 23 23 24 27 28 30 31 30 28 27 34 42 47 47 48 48 49 52 53 53 50 47 47 49 48 46 46 45 42 39 39 38 38 39 39 39 37 35 41 45 46 45 46 47
nan nan nan nan nan nan nan nan nan nan 24 nan nan nan nan nan nan nan nan 20 21 18 21 18 25 27 23 22 23 24 25 26 33 30 30 27 25 23 22 22 22 23 23 22 20 19 23 28 35 37 33 27 27 35 44 47 51 51 49 50 53 50 49 50 50 50 50 50 48 48 47 46 44 41 38 36 38 39 37 36 41 44 43 39 36 40
nan nan nan nan nan nan nan nan nan nan nan nan nan nan nan nan 23 22 20 22 19 nan 18 28 28 21 19 20 21 21 28 31 27 29 32 31 32 29 27 27 24 23 21 20 18 14 18 25 31 35 33 29 25 29 37 45 50 52 53 52 48 47 48 48 50 53 53 52 52 51 49 47 45 41 38 39 nan nan nan nan nan nan nan nan nan nan
nan nan nan nan nan nan nan nan nan 30 nan 26 nan nan 21 21 22 23 nan nan 22 18 23 31 27 16 17 20 21 21 22 25 27 30 31 32 31 28 26 26 22 20 19 20 19 nan nan 20 27 27 27 26 22 21 29 40 45 48 52 52 44 44 46 49 51 52 54 54 54 53 50 46 44 43 nan nan nan nan nan nan nan nan nan nan nan nan
nan nan 23 nan nan nan nan nan nan nan 21 19 21 nan nan 25 22 nan nan nan nan 24 27 32 25 15 14 22 22 22 24 25 30 31 29 24 25 25 26 25 23 20 17 19 19 19 17 19 27 26 26 24 21 17 20 27 32 33 41 44 45 45 46 49 51 52 52 52 52 52 48 47 nan nan nan nan nan nan nan nan nan nan nan nan nan nan
23 nan nan nan nan nan nan nan nan nan nan nan nan 27 27 26 24 nan nan nan nan 24 26 28 34 20 14 20 24 22 24 26 28 30 27 21 22 24 23 23 24 23 22 18 19 20 19 16 18 21 22 24 22 19 18 21 21 21 23 31 38 41 42 43 44 45 46 45 46 47 47 nan nan nan nan nan nan 30 25 22 21 23 nan nan nan nan
nan nan nan nan nan nan nan nan nan nan nan nan nan nan 27 25 24 26 24 24 23 24 26 26 32 28 20 20 25 27 27 26 27 28 26 24 22 23 22 23 25 25 23 21 20 22 23 23 20 17 nan 22 23 21 21 22 22 21 17 20 23 26 29 30 30 29 30 31 nan nan nan nan nan nan nan nan nan 29 27 24 22 nan 23 22 nan nan
nan nan nan nan nan nan nan nan nan nan 28 25 nan nan nan 30 31 29 27 24 26 29 27 27 31 32 25 22 26 28 29 28 29 28 28 28 25 25 25 26 28 28 25 24 24 25 25 25 22 nan nan 21 22 21 21 21 22 23 22 19 17 15 15 16 16 16 17 19 20 nan nan nan nan nan nan nan nan nan nan nan nan nan nan nan nan nan
31 nan nan nan nan nan nan nan nan 22 21 30 33 32 31 30 28 27 27 27 25 31 30 29 28 30 27 26 27 30 31 31 30 30 33 33 30 29 nan nan nan 29 27 nan nan 26 22 nan nan nan nan nan nan 21 21 20 nan nan nan nan nan nan nan nan nan nan nan nan nan nan nan nan nan nan nan nan nan nan nan nan nan nan nan nan nan nan
nan nan nan nan nan nan nan 28 28 nan 25 24 25 27 30 31 27 27 27 27 30 32 28 30 31 31 31 30 29 31 34 32 31 31 34 nan 33 nan nan nan nan 32 28 27 28 nan nan nan nan 24 nan nan nan nan nan nan nan nan nan nan nan nan nan nan nan nan nan nan nan nan nan nan nan nan nan nan nan nan nan nan nan nan nan nan nan nan
nan nan nan nan nan 23 nan 26 24 24 nan 26 24 26 29 28 26 24 27 30 32 29 26 31 33 34 34 31 31 34 34 34 33 31 33 34 nan nan 34 nan nan nan nan 26 28 27 nan nan nan nan 18 nan nan nan nan nan nan nan nan nan nan nan nan nan nan nan nan nan nan nan nan nan nan nan nan nan nan nan nan nan nan nan nan nan nan nan
Wind_Direction
nan nan nan nan nan nan nan nan nan nan nan nan nan nan nan nan 268 271 270 280 284 272 267 282 279 246 286 264 278 272 254 241 240 209 218 206 186 159 nan 265 254 279 248 248 294 292 292 302 290 293 289 285 292 278 280 274 275 263 245 234 222 224 227 224 203 199 204 204 210 235 214 202 187 194 215 164 174 205 196 215 187 142 161 151 157 147
nan nan nan nan nan nan nan nan nan nan nan nan nan nan nan nan 285 284 274 280 280 271 253 269 271 259 277 292 277 279 275 268 258 237 225 219 205 170 nan nan 268 243 255 283 180 268 294 295 298 296 289 293 292 287 293 286 277 254 272 261 229 228 225 225 208 203 218 198 215 242 251 232 208 195 192 197 200 195 221 219 184 162 183 185 169 159
nan nan nan nan nan nan nan nan nan nan nan nan nan nan nan 262 272 272 275 274 266 260 256 264 246 253 272 282 232 280 283 273 267 253 233 249 222 206 190 nan 262 258 260 257 239 268 305 295 300 294 295 291 292 298 309 290 286 280 262 219 201 215 222 219 207 189 209 199 221 224 246 232 190 225 187 208 237 209 225 232 206 171 188 177 156 143
nan nan nan nan nan nan nan nan nan nan nan nan nan nan nan 283 nan 283 268 273 275 256 246 258 247 257 239 273 300 245 270 269 263 244 234 232 230 211 192 nan 266 263 259 273 278 265 258 293 290 292 291 290 290 288 294 301 296 288 245 239 195 209 211 214 217 182 218 179 203 220 238 272 204 229 194 218 223 218 226 243 219 172 192 170 158 177
nan nan nan nan nan nan nan nan nan nan nan nan nan nan nan nan nan nan 274 264 278 254 254 253 260 259 271 283 291 257 233 250 261 263 237 231 233 215 202 190 274 271 266 260 272 272 317 292 291 288 286 293 292 296 299 301 300 279 304 283 232 195 217 200 224 184 208 203 207 221 220 221 218 228 225 229 218 193 227 230 227 223 209 162 197 209
nan nan nan nan nan nan nan nan nan nan nan nan nan nan nan nan nan 276 nan nan nan 264 258 253 nan nan 276 282 287 290 283 284 275 286 264 246 239 233 222 202 257 272 270 268 262 274 281 284 287 286 294 295 290 296 297 295 307 293 301 306 267 189 222 209 243 184 200 191 210 199 229 216 218 207 234 249 272 254 245 241 234 222 213 243 199 219
nan nan nan nan nan nan nan nan nan nan nan nan nan nan nan nan nan nan nan nan nan nan 259 263 nan nan 263 258 278 303 306 302 281 288 283 260 245 241 239 223 nan 269 263 257 246 249 249 295 286 293 295 291 292 292 292 293 307 295 300 306 303 240 221 231 220 197 177 173 176 169 184 210 182 173 206 161 212 255 276 242 266 132 191 260 136 254
nan nan nan nan nan nan nan nan nan nan nan nan nan nan nan nan nan nan nan nan nan nan 256 265 263 252 254 290 314 303 307 314 296 286 293 276 260 245 246 240 247 nan 274 260 250 236 297 287 287 292 296 289 287 285 292 288 292 282 279 297 291 250 238 197 233 178 171 175 160 143 145 168 132 101 168 164 220 206 210 200 284 192 225 230 204 198
nan nan nan nan nan nan nan nan nan nan nan nan nan nan nan nan nan nan nan nan nan nan nan 258 262 258 265 253 278 292 289 315 327 307 296 282 268 255 251 nan 239 nan 271 262 248 279 261 274 286 286 290 290 288 278 287 281 279 283 292 286 274 263 247 238 246 203 184 181 164 144 135 160 127 143 150 155 207 166 151 151 139 156 112 281 140 121
nan nan nan nan nan nan nan nan nan nan nan nan nan nan nan nan nan nan nan nan nan nan nan nan 270 252 nan 271 276 293 306 333 334 322 300 282 275 266 256 258 252 nan 264 263 267 248 244 269 281 282 284 293 281 271 272 277 280 288 287 289 274 270 243 247 263 216 203 191 177 142 130 159 149 171 143 138 177 151 108 150 116 165 123 83 27 86
nan nan nan nan nan nan nan nan nan nan nan nan nan nan nan nan nan nan nan nan nan nan nan nan nan nan nan 282 282 287 293 315 308 303 291 278 271 276 272 266 247 nan nan 256 242 254 250 242 268 277 288 nan 282 267 274 269 276 287 288 295 293 281 238 257 274 257 238 196 178 150 132 158 155 156 156 157 148 145 142 118 114 94 106 128 109 65
nan nan nan nan nan nan nan nan nan nan nan nan nan nan nan nan nan nan nan nan nan nan 237 242 249 249 243 255 253 281 276 294 303 306 307 294 283 279 273 260 246 243 nan 258 255 256 249 215 242 268 278 276 274 nan 277 264 270 279 278 285 287 286 251 258 294 288 273 214 196 177 143 184 158 199 166 149 157 131 127 116 116 120 109 102 103 113
nan nan nan nan nan nan nan nan nan nan nan nan nan nan nan nan nan nan nan nan nan nan 243 231 250 253 247 251 261 273 282 286 290 295 312 309 300 297 276 248 237 240 nan nan 250 251 256 247 241 205 250 258 251 257 270 276 268 268 275 292 294 288 287 266 303 309 286 237 232 202 182 190 183 209 158 139 159 147 135 117 115 104 111 107 105 96
nan nan nan nan nan nan nan nan nan nan nan nan nan nan nan nan nan nan nan nan nan nan 253 245 240 221 nan nan nan 278 281 279 289 297 309 313 314 310 276 240 236 243 246 nan nan 253 247 253 245 255 250 250 246 263 271 274 260 253 267 278 296 291 295 278 300 328 307 267 250 215 233 216 216 208 182 165 85 69 143 113 118 71 76 100 94 95
nan nan nan nan nan nan nan nan nan nan nan nan nan nan nan nan nan nan nan nan nan 268 278 277 255 nan nan 245 nan nan 260 239 259 274 291 304 309 298 266 247 247 249 241 nan nan nan 260 250 253 240 232 242 239 258 264 254 254 250 258 269 275 284 294 292 291 275 306 271 247 221 238 237 241 236 206 198 175 256 321 34 41 172 143 91 76 72
nan nan nan nan nan nan nan nan nan nan nan nan nan nan nan nan nan nan nan nan nan nan 285 nan nan nan nan 229 232 231 231 228 236 260 270 287 287 283 258 243 250 247 246 nan nan nan 261 255 250 248 235 245 246 239 251 252 253 252 257 267 275 289 295 298 288 261 290 236 233 237 201 258 233 235 241 225 216 213 234 272 251 297 280 100 198 151
nan nan nan nan nan nan nan nan nan nan nan nan nan nan nan nan nan nan nan nan nan nan nan nan nan nan 252 246 231 240 246 248 209 235 258 269 278 277 252 247 246 239 236 240 252 252 258 254 258 257 252 239 243 242 246 238 250 246 250 262 267 272 279 296 284 289 260 232 236 237 244 200 221 279 332 250 329 43 275 203 249 280 318 315 266 59
nan nan nan nan nan nan nan nan nan nan nan nan nan nan nan nan nan nan nan nan nan nan nan nan nan nan 242 226 226 233 249 253 249 242 256 263 266 273 248 231 232 231 232 227 231 249 256 254 250 251 250 242 229 229 246 239 248 240 247 252 264 269 271 282 291 289 275 256 249 249 268 207 189 266 21 185 292 343 237 255 220 258 298 331 342 335
nan nan nan nan nan nan nan nan nan nan nan nan nan nan nan 243 nan 246 nan nan nan nan nan nan nan 241 nan 244 236 233 233 248 249 241 240 264 267 258 242 222 216 217 225 228 224 243 251 253 254 244 252 248 227 236 228 240 247 244 249 254 255 266 272 275 266 268 253 264 241 249 267 315 263 212 246 222 235 227 235 314 309 330 285 333 317 299
nan nan nan nan nan nan nan nan nan nan nan nan nan nan nan nan nan nan nan 231 230 nan nan nan nan nan 249 236 224 227 236 235 231 241 255 255 241 241 237 227 217 214 222 228 222 240 253 nan 260 253 255 254 238 234 240 235 246 255 249 248 245 243 247 252 262 252 253 259 242 244 254 250 230 227 221 229 232 264 214 267 310 321 328 327 315 306
nan nan nan nan nan nan nan nan nan nan nan nan nan nan nan nan nan nan nan nan nan nan nan nan 208 253 249 252 241 238 232 233 228 244 247 238 244 233 224 226 226 216 218 223 224 226 248 254 nan 254 247 249 248 237 238 236 241 242 243 247 246 247 255 252 250 250 239 241 232 233 254 260 253 260 246 243 229 257 272 267 226 261 239 260 298 299
nan nan nan nan nan nan nan nan nan nan nan nan nan nan nan 228 217 nan 238 nan nan nan nan nan nan 245 236 219 236 226 226 225 220 226 240 238 223 228 219 214 230 227 217 221 220 215 240 240 247 251 247 249 249 246 241 239 233 237 241 241 240 248 240 240 238 238 239 231 236 231 244 243 244 241 234 256 259 251 244 246 255 278 309 340 306 291
nan nan nan nan nan nan nan nan nan nan nan nan nan nan nan nan nan 226 nan nan nan nan nan nan nan 258 268 259 249 237 235 226 223 213 227 243 223 231 239 210 212 227 212 216 216 209 220 236 236 243 247 250 251 245 246 243 237 232 232 233 236 232 232 226 230 238 242 232 234 234 244 243 244 244 252 263 262 275 281 295 303 295 297 310 312 305
nan nan nan nan nan nan nan nan nan nan nan nan nan nan nan nan nan nan nan nan nan nan nan nan nan 246 262 255 258 254 239 232 232 224 213 228 231 253 263 244 214 224 230 221 208 209 207 229 232 235 241 243 243 241 241 237 229 232 232 231 234 232 236 225 227 236 241 238 235 241 237 243 245 258 263 262 261 276 287 280 280 273 280 291 285 288
nan nan nan nan nan nan nan nan nan nan nan nan nan nan nan nan nan nan nan 241 223 213 nan nan 210 246 259 254 258 257 249 236 231 239 222 225 229 227 221 231 222 229 233 233 223 214 208 220 229 229 235 237 239 240 240 240 237 235 234 231 236 229 232 229 228 235 238 238 237 236 233 241 246 238 246 252 258 269 271 268 271 266 265 275 284 289
nan nan nan nan nan nan nan nan nan nan nan nan nan nan nan nan nan nan nan 251 nan 222 nan nan nan 224 232 252 252 250 254 244 248 255 232 233 236 227 222 215 202 217 228 239 224 214 218 212 224 231 233 235 239 240 239 238 238 239 236 237 233 234 232 232 231 237 242 243 241 236 243 245 251 257 257 250 248 257 270 276 270 258 255 274 277 273
nan nan nan nan nan nan nan nan nan nan nan nan nan nan nan nan nan nan 260 258 251 244 nan 237 235 224 240 247 233 237 237 238 228 260 272 241 234 237 237 238 237 230 224 235 238 227 229 226 208 226 233 234 238 241 239 240 240 240 242 242 239 235 236 235 234 238 242 247 249 246 249 254 253 252 260 260 256 252 257 273 276 281 294 288 279 281
nan nan nan nan nan nan nan nan nan nan nan nan nan nan nan nan 282 286 272 252 266 255 230 251 242 231 216 nan 256 231 216 218 225 241 267 261 247 246 250 248 237 237 233 235 234 223 232 229 212 207 227 232 234 238 241 241 240 243 245 248 247 245 241 242 244 245 248 249 249 248 251 250 254 256 252 256 259 256 256 263 287 293 295 284 273 284
nan nan nan nan nan nan nan nan nan nan nan nan nan nan nan nan nan nan nan nan 272 nan nan nan 242 243 237 229 233 226 225 221 198 228 250 266 262 256 252 253 259 249 232 233 243 239 230 215 216 211 214 229 233 237 239 242 237 236 241 245 246 246 248 248 248 250 254 252 252 250 250 250 248 239 245 241 258 264 257 251 248 249 249 266 279 274
nan nan nan nan nan nan nan nan nan nan nan nan nan nan nan nan nan nan nan nan nan nan nan nan 253 238 242 243 248 239 242 243 218 198 228 249 264 258 254 254 250 242 233 230 242 243 234 214 214 216 216 213 223 241 241 240 242 238 240 243 238 239 244 251 248 251 252 256 256 255 255 249 252 252 251 251 248 252 254 254 254 252 254 255 264 267
nan nan nan nan nan nan nan nan nan nan nan nan nan nan nan nan nan nan nan nan nan nan nan nan 242 246 248 249 248 233 244 248 243 206 219 234 245 257 254 251 245 241 229 227 233 239 242 234 220 219 216 215 216 215 219 232 242 242 240 239 239 240 236 235 246 250 254 256 258 258 257 256 257 261 259 257 257 259 258 256 255 252 248 248 259 259
nan nan nan nan nan nan nan nan nan nan nan nan nan nan nan nan nan nan nan nan nan nan nan 240 240 246 261 265 256 236 239 252 251 255 211 211 232 235 242 244 244 238 231 230 233 241 245 242 237 230 222 213 217 222 212 206 219 234 236 239 243 241 239 233 227 239 240 251 255 257 257 258 260 261 261 261 261 263 263 261 256 253 249 248 250 256
nan nan nan nan nan nan nan nan nan nan nan nan nan nan nan nan nan nan nan nan nan nan nan 248 242 249 254 262 255 229 227 244 255 258 251 224 219 217 221 224 225 225 221 223 228 234 243 247 248 244 227 222 223 230 225 213 207 217 219 220 232 238 240 237 227 235 237 243 247 250 251 250 253 255 258 259 259 261 265 264 261 260 256 253 251 249
nan nan nan nan nan nan nan nan nan nan nan nan nan nan nan nan nan nan nan nan 266 268 nan nan 246 258 262 263 254 230 233 245 247 246 244 241 219 206 203 209 215 220 219 216 224 234 246 245 243 239 232 223 219 230 235 229 227 222 220 214 213 223 235 234 235 243 242 242 249 253 253 253 251 250 251 251 252 258 264 265 265 264 263 261 259 256
nan nan nan nan nan nan nan nan nan nan nan nan nan nan nan nan nan nan nan nan nan nan nan 266 262 259 260 259 257 244 241 245 247 245 241 231 230 237 220 214 216 218 221 220 223 233 239 248 251 248 244 230 219 220 230 226 230 234 231 221 212 222 227 227 239 250 250 234 239 249 249 245 247 242 241 242 244 242 247 261 264 266 266 265 262 260
nan nan nan nan nan nan nan nan nan nan nan nan nan nan nan nan nan nan nan nan nan nan 239 nan 250 257 259 256 250 248 247 250 248 242 252 242 235 228 226 228 226 228 228 223 223 225 239 252 248 249 252 238 228 226 224 227 233 235 232 229 215 214 230 237 237 240 248 251 230 236 241 235 236 245 246 245 247 251 254 261 263 263 259 257 258 257
nan nan nan nan nan nan nan nan nan nan nan nan nan nan nan nan nan nan nan nan 254 250 242 242 246 248 247 245 241 243 242 240 248 258 256 251 237 231 231 232 239 240 239 237 230 233 234 250 267 262 247 240 234 230 224 226 234 236 233 232 230 228 231 234 235 237 239 247 245 242 243 239 234 244 250 256 259 257 251 256 259 259 254 257 258 260
nan nan nan nan nan nan nan nan nan nan nan nan nan nan nan nan nan nan nan nan 262 258 259 257 250 253 249 246 244 243 241 240 248 269 264 258 268 261 245 246 248 247 248 246 247 246 244 260 272 258 242 240 236 234 232 230 232 233 230 228 229 229 231 232 234 233 236 242 242 240 244 247 245 243 246 246 254 257 261 261 258 260 260 262 264 265
nan nan nan nan nan nan nan nan nan nan nan nan nan nan nan nan nan nan nan nan 262 261 259 255 251 255 251 251 249 242 245 249 253 265 261 250 247 252 254 250 251 252 248 244 244 250 257 265 275 274 252 238 235 231 233 234 232 232 230 229 231 230 230 230 232 233 237 244 248 246 243 248 250 246 239 247 254 257 259 258 257 259 261 261 261 263
nan nan nan nan nan nan nan nan nan nan nan nan nan nan nan nan nan nan nan 272 nan 265 264 260 256 252 255 259 261 254 249 250 253 255 258 248 248 249 255 258 262 259 251 246 244 247 248 251 262 270 270 257 239 232 231 233 235 234 233 233 233 231 229 230 231 235 238 243 251 259 255 251 252 251 248 249 249 245 249 254 259 259 260 263 262 264
nan nan nan nan nan nan nan nan nan nan nan nan nan nan nan nan nan nan nan 273 272 268 266 264 262 265 263 264 267 261 254 247 250 258 262 260 258 257 254 256 261 262 260 250 243 248 253 251 255 265 274 267 249 238 232 231 231 230 232 234 234 232 231 231 235 240 246 248 252 257 257 251 250 254 254 254 255 252 249 257 266 264 261 261 265 270
nan nan nan nan nan nan nan nan nan nan 252 nan nan nan nan nan nan nan nan 291 281 280 277 270 261 268 268 265 260 257 256 246 249 263 267 257 250 253 253 256 263 267 260 260 258 258 263 260 259 263 269 275 264 247 236 234 233 231 232 236 236 233 235 238 241 243 245 248 251 254 255 253 255 258 256 254 256 256 257 256 256 257 261 261 260 263
nan nan nan nan nan nan nan nan nan nan nan nan nan nan nan nan 264 272 275 283 268 nan 264 260 264 270 265 264 264 259 250 242 236 245 244 243 240 239 243 247 257 265 263 256 256 265 276 272 268 264 265 271 273 257 243 239 237 234 234 236 235 234 237 238 242 245 247 250 252 253 255 255 255 256 257 260 nan nan nan nan nan nan nan nan nan nan
nan nan nan nan nan nan nan nan nan 235 nan 246 nan nan 267 260 258 260 nan nan 282 278 269 273 268 266 266 273 274 259 257 256 247 240 242 243 246 248 243 246 246 249 253 253 250 nan nan 262 263 262 260 265 271 262 247 242 240 238 238 237 236 237 239 242 245 247 250 252 254 256 256 257 257 257 nan nan nan nan nan nan nan nan nan nan nan nan
nan nan 245 nan nan nan nan nan nan nan 251 245 250 nan nan 263 270 nan nan nan nan 268 267 276 286 270 271 279 274 270 264 260 253 250 240 227 245 251 255 256 247 242 245 249 247 245 246 260 265 264 267 268 266 256 242 236 238 237 238 237 237 239 242 245 247 249 250 252 253 252 252 254 nan nan nan nan nan nan nan nan nan nan nan nan nan nan
253 nan nan nan nan nan nan nan nan nan nan nan nan 252 251 249 246 nan nan nan nan 266 268 278 290 294 286 283 278 273 268 264 254 250 257 253 246 251 256 257 256 252 249 250 252 248 249 249 259 265 267 264 257 247 236 226 228 239 234 229 229 232 236 240 243 245 247 248 249 250 251 nan nan nan nan nan nan 251 261 268 267 262 nan nan nan nan
nan nan nan nan nan nan nan nan nan nan nan nan nan nan 261 262 262 258 253 260 265 267 273 272 284 301 301 290 283 280 273 271 262 254 248 252 259 264 257 248 245 246 245 242 246 248 241 245 254 249 nan 245 249 247 245 243 242 248 242 226 225 228 232 235 239 241 239 238 nan nan nan nan nan nan nan nan nan 260 267 269 266 nan 262 267 nan nan
nan nan nan nan nan nan nan nan nan nan 259 255 nan nan nan 256 260 261 264 264 265 271 272 274 280 289 294 288 283 280 274 270 266 259 250 244 242 245 249 251 251 249 245 235 230 234 243 251 253 nan nan 246 250 246 247 246 246 247 250 250 242 225 233 247 250 252 251 250 246 nan nan nan nan nan nan nan nan nan nan nan nan nan nan nan nan nan
246 nan nan nan nan nan nan nan nan 263 261 255 256 254 252 254 256 261 263 264 267 273 277 275 278 286 287 285 280 276 273 268 263 258 255 254 249 242 nan nan nan 247 243 nan nan 216 222 nan nan nan nan nan nan 239 238 242 nan nan nan nan nan nan nan nan nan nan nan nan nan nan nan nan nan nan nan nan nan nan nan nan nan nan nan nan nan nan
nan nan nan nan nan nan nan 256 253 nan 258 251 256 251 255 256 260 261 266 267 268 280 283 282 280 283 288 285 280 273 271 270 265 258 255 nan 248 nan nan nan nan 246 239 234 230 nan nan nan nan 229 nan nan nan nan nan nan nan nan nan nan nan nan nan nan nan nan nan nan nan nan nan nan nan nan nan nan nan nan nan nan nan nan nan nan nan nan
nan nan nan nan nan 236 nan 265 263 266 nan 261 266 264 259 254 257 264 265 263 267 281 286 287 289 288 289 287 282 279 274 271 267 262 254 250 nan nan 238 nan nan nan nan 234 234 234 nan nan nan nan 230 nan nan nan nan nan nan nan nan nan nan nan nan nan nan nan nan nan nan nan nan nan nan nan nan nan nan nan nan nan nan nan nan nan nan nan